Theta_e
311 311 312 312 312 312 311 311 312 312 314 315 316 317 317 317 320 323 323 323 321 320 320 323 325 328 328 333 334 333 339 340 339 340 345 342 341 340 340 339 338 338 339 338 337
311 312 312 312 312 312 312 312 313 314 315 317 317 318 319 319 321 323 322 321 320 319 319 320 323 330 334 335 335 335 338 338 335 337 343 342 341 340 340 339 338 337 338 337 335
311 312 313 313 313 312 312 313 314 315 316 317 318 319 321 320 322 324 319 319 320 321 323 323 328 332 335 334 336 339 339 336 336 341 342 340 339 339 338 338 337 338 337 336 335
311 312 314 313 313 312 313 314 315 316 317 317 318 319 320 322 322 324 320 320 321 323 328 327 325 333 334 335 334 343 339 340 340 339 339 338 338 337 335 336 336 337 336 337 334
311 312 314 314 313 313 314 315 316 316 317 318 319 320 321 322 321 324 319 321 326 327 331 330 332 333 335 333 336 342 339 339 339 337 337 337 336 335 331 335 336 336 336 335 329
311 311 314 314 314 313 314 315 316 317 318 318 320 322 323 323 320 319 320 324 325 329 332 332 332 332 333 335 337 340 339 338 338 337 336 337 335 335 330 330 333 334 328 328 326
311 312 313 314 314 314 315 316 317 317 318 319 321 323 323 322 320 321 324 324 322 322 326 331 332 333 334 338 338 337 340 338 337 337 336 336 337 334 329 328 328 327 326 326 326
311 312 313 314 314 315 317 317 318 318 319 319 320 324 325 322 322 322 323 323 324 323 326 327 328 333 336 336 335 337 338 344 334 338 336 338 340 332 330 329 327 327 326 324 326
311 312 313 314 315 317 318 318 318 320 319 321 319 323 325 324 323 324 324 324 324 324 323 328 333 334 333 336 338 336 339 336 338 335 338 337 337 334 332 330 329 327 327 326 327
312 312 313 314 317 318 319 320 322 323 323 324 320 322 321 325 324 324 324 324 326 324 331 332 331 335 334 335 336 337 337 336 338 336 336 336 337 334 333 332 328 328 327 328 328
312 312 313 315 319 319 321 323 324 326 325 324 324 322 321 325 324 324 324 324 330 325 330 325 331 332 332 334 334 334 335 337 335 333 335 336 335 333 334 333 330 329 327 326 327
312 312 313 318 320 321 323 323 322 320 323 325 325 325 324 324 324 323 323 324 325 323 323 328 332 332 334 332 334 336 338 337 334 332 334 334 334 331 330 329 332 331 328 326 327
312 312 314 320 320 323 323 322 323 322 324 325 325 325 325 325 325 324 323 322 323 322 323 326 330 332 332 332 334 336 336 337 338 334 333 333 335 333 330 329 328 329 329 328 327
312 313 314 321 323 323 323 323 324 324 326 325 325 326 326 326 325 324 324 323 321 322 328 330 329 333 332 333 332 334 331 335 336 336 339 332 339 333 331 331 329 328 328 328 328
312 313 316 319 322 323 322 325 325 325 328 328 325 325 324 324 323 322 323 323 324 328 329 331 330 331 331 331 331 333 333 335 334 334 334 331 334 332 331 331 331 330 329 328 327
313 313 316 321 322 322 324 325 326 329 333 331 325 323 324 325 327 326 324 323 328 331 331 330 331 328 331 330 330 330 331 329 329 330 334 331 331 333 332 331 330 328 329 328 328
313 313 316 321 322 322 325 325 328 334 329 334 333 327 328 330 331 329 330 331 332 334 334 330 329 328 327 331 328 331 333 333 335 335 336 330 328 330 327 327 328 327 328 328 328
313 313 316 321 322 323 327 331 331 329 332 333 332 328 332 332 331 330 330 329 327 330 331 333 333 328 326 327 330 331 327 329 330 330 334 328 331 328 324 325 327 326 326 326 326
313 314 315 320 322 323 327 333 334 332 333 334 330 332 331 333 332 330 328 330 326 327 333 333 333 327 325 324 326 329 331 325 331 329 332 332 329 325 323 325 325 325 324 322 323
314 314 315 320 322 323 331 329 332 330 333 332 332 330 333 334 335 331 329 326 325 326 326 329 333 326 327 324 324 328 324 330 328 334 332 330 329 328 323 320 319 318 318 318 320
320 317 316 321 323 323 331 329 328 331 330 331 330 331 333 334 332 330 328 327 326 325 326 328 330 326 325 326 325 326 327 328 328 329 332 330 330 321 318 319 321 320 319 319 319
325 323 318 322 325 324 329 328 329 331 326 328 329 331 333 330 329 329 331 330 329 324 330 326 327 327 324 323 321 323 326 327 329 331 328 328 328 320 320 320 320 319 320 320 319
327 323 319 322 327 329 329 330 329 328 327 329 330 331 329 329 331 328 328 329 329 330 330 328 328 328 326 325 322 323 321 324 326 326 328 326 326 321 321 321 321 320 319 319 318
327 327 323 321 325 329 331 331 330 325 325 326 327 329 331 331 329 329 332 329 327 325 323 327 328 331 330 326 323 323 322 319 322 323 325 323 324 323 323 322 320 319 318 317 314
333 331 322 327 327 329 329 329 329 329 326 325 329 329 331 332 332 332 331 330 327 325 322 327 326 323 323 322 323 323 323 322 322 320 323 324 324 324 323 321 319 317 314 311 310
334 333 328 329 328 330 327 330 330 328 328 328 329 328 329 332 332 333 333 332 330 327 326 324 324 324 325 323 323 324 324 324 324 324 324 324 324 318 319 320 315 311 310 310 310
334 335 329 330 331 330 331 331 329 328 327 327 328 330 332 330 329 328 328 329 328 328 329 327 325 326 327 324 325 327 325 325 325 324 324 325 320 317 317 314 310 310 311 311 311
Wind_Speed
15 13 10 8 8 7 6 5 6 8 7 7 4 3 5 9 17 15 12 13 17 18 17 14 11 9 8 3 2 4 3 4 4 5 5 10 3 3 4 9 6 3 8 14 20
15 13 10 7 7 6 5 5 7 8 7 6 5 5 7 13 14 9 12 16 16 14 14 13 13 12 4 3 2 2 2 3 1 4 6 10 4 6 3 7 5 11 14 24 22
15 12 9 7 6 5 4 5 7 7 7 6 5 5 7 9 9 7 13 15 14 12 10 11 13 8 4 3 3 4 3 6 4 9 14 8 7 3 7 4 4 14 22 22 21
13 12 8 6 5 4 4 5 6 6 6 4 4 5 5 9 7 11 13 16 14 8 6 9 13 4 3 4 3 6 8 4 8 9 8 6 7 6 4 2 8 15 19 23 21
13 11 7 6 5 3 3 5 5 5 5 4 4 2 8 6 5 14 18 14 11 6 11 9 8 3 4 4 5 9 8 9 12 14 13 12 10 5 6 5 11 17 19 19 17
12 10 6 5 4 2 1 4 4 5 5 4 6 5 9 4 12 16 17 14 9 7 11 3 2 8 9 4 4 6 13 14 9 10 8 9 6 2 5 8 12 14 9 13 17
12 10 6 4 3 1 0 3 4 4 4 5 7 9 7 7 14 15 12 9 6 4 4 5 4 3 6 7 10 10 9 9 9 5 5 5 8 7 8 9 11 9 8 12 11
12 9 6 4 2 1 1 2 3 3 4 4 6 6 4 11 14 13 12 8 6 5 2 1 1 6 5 13 5 2 3 2 5 3 2 6 4 6 7 10 9 9 10 11 15
12 9 5 2 0 1 2 2 2 3 4 3 3 4 5 11 14 14 10 3 6 7 4 3 5 6 6 5 3 3 0 2 3 6 4 4 5 8 7 8 9 9 12 14 13
11 8 4 1 1 2 2 2 2 1 1 2 3 7 5 7 11 11 11 5 3 11 10 4 3 3 2 3 3 3 4 4 3 4 8 8 7 7 8 8 9 10 8 11 13
10 6 3 0 3 3 4 1 0 2 3 1 3 3 4 10 7 8 11 11 16 3 3 1 3 3 4 5 3 6 6 7 5 4 8 8 6 3 4 6 10 9 10 10 11
10 6 2 2 3 6 9 5 6 0 3 5 6 5 6 5 6 10 11 8 6 2 4 3 2 2 8 10 10 10 14 6 6 4 4 6 5 4 4 2 3 10 17 10 6
9 6 1 3 3 6 6 8 5 2 2 3 4 4 6 9 5 10 13 6 3 3 2 2 1 4 3 6 6 5 4 10 7 10 6 6 3 1 4 3 4 6 11 13 12
9 5 1 3 5 5 4 11 6 5 2 1 3 4 9 7 3 9 12 4 2 1 3 1 2 2 4 2 1 5 4 13 16 10 2 2 1 2 3 5 5 7 10 13 13
7 3 3 4 5 4 5 7 3 3 3 1 2 3 7 5 7 2 9 7 6 4 3 2 3 4 3 5 2 4 6 12 12 6 6 3 3 3 3 1 4 4 8 10 11
6 2 5 5 5 4 8 3 2 0 2 1 1 3 5 2 3 3 3 4 5 5 9 3 3 5 3 8 7 14 14 10 5 3 3 2 2 3 1 3 5 5 6 8 11
4 2 7 5 3 5 6 2 2 1 2 2 2 2 4 2 4 4 3 4 1 4 4 3 4 3 6 6 2 5 7 2 4 4 1 2 2 2 4 3 4 10 10 8 8
3 2 8 6 2 3 4 3 1 1 2 1 2 5 3 2 5 5 3 3 7 2 3 3 4 6 7 2 1 8 3 4 7 6 1 2 2 3 6 4 4 6 7 8 9
2 2 6 6 2 2 1 2 3 3 1 1 3 3 2 3 4 4 5 3 5 6 1 3 2 2 7 5 2 3 3 2 4 1 3 2 3 1 4 9 10 14 16 18 17
2 3 7 7 2 3 3 2 2 3 3 1 2 1 3 2 3 3 2 2 2 7 4 3 3 4 3 2 11 4 5 2 1 2 2 2 2 2 12 12 13 19 19 19 17
3 4 7 8 1 2 1 2 3 4 3 2 2 4 4 3 4 2 1 3 4 3 7 4 1 2 0 6 5 1 1 4 3 2 2 1 3 8 6 7 9 12 15 17 17
2 2 10 7 2 2 1 3 4 4 3 6 5 6 4 3 3 3 3 3 5 1 3 2 3 3 4 4 3 3 4 2 3 3 2 2 2 5 5 7 9 12 14 15 15
3 4 8 3 2 1 2 0 3 4 6 5 4 4 2 3 4 4 3 4 4 4 2 4 2 4 3 3 2 4 4 3 4 1 1 3 3 3 3 7 11 13 14 15 18
2 2 2 1 3 1 0 2 3 7 5 7 4 4 2 2 4 4 4 4 7 7 7 5 3 1 2 4 3 3 4 2 1 0 3 0 4 1 6 9 13 13 14 15 16
3 2 2 2 2 1 1 1 3 3 3 6 4 3 3 3 3 4 4 4 7 3 4 3 4 5 9 6 5 5 5 6 5 3 2 3 2 5 8 9 9 10 11 12 14
2 3 3 3 2 1 1 1 3 2 4 3 6 2 3 3 2 5 6 3 2 4 3 2 4 4 5 4 5 7 6 9 8 6 5 2 1 6 6 2 6 9 9 12 14
2 3 2 1 2 1 0 0 3 7 9 6 13 9 11 4 8 10 7 8 6 4 3 3 6 4 4 6 3 3 2 3 4 3 2 3 0 7 5 5 8 9 11 13 16
Wind_Direction
9 11 11 10 18 17 31 43 65 67 60 64 66 77 94 121 139 148 158 155 157 167 166 165 142 129 113 117 103 93 105 124 155 169 140 161 131 106 87 122 82 130 150 169 155
9 7 10 13 22 18 35 56 67 62 57 64 65 76 93 138 148 152 163 163 163 172 172 173 156 150 107 107 54 59 100 103 157 124 151 156 142 139 129 137 82 115 145 159 158
7 5 8 8 16 19 44 67 68 63 60 63 65 76 115 152 147 164 158 163 163 171 173 180 165 153 97 88 39 49 74 133 105 109 138 135 124 131 147 171 162 153 152 161 161
2 360 2 359 9 25 62 69 66 67 66 60 62 69 142 164 155 171 164 166 172 174 188 176 175 172 102 99 74 101 59 103 123 114 116 107 114 106 66 332 187 173 167 170 171
358 355 353 349 360 22 68 67 62 61 58 45 36 32 154 179 173 170 171 170 156 152 148 141 158 148 87 104 108 100 122 85 109 104 97 110 89 84 48 118 148 171 169 172 172
357 347 348 343 352 9 45 64 55 47 37 10 15 110 143 144 156 164 175 162 159 160 171 170 221 119 99 62 36 99 113 113 88 93 112 111 101 84 77 123 140 154 151 167 167
352 345 343 342 355 341 109 72 52 39 19 6 28 116 115 129 148 159 164 172 187 166 166 187 85 60 111 103 118 113 92 94 46 67 109 108 68 66 115 119 114 116 147 170 175
347 345 339 342 356 237 344 50 40 29 3 4 45 116 97 146 159 162 164 173 196 184 148 190 245 85 73 116 94 101 108 156 20 19 116 333 62 126 149 150 144 168 170 165 176
346 343 339 343 19 232 335 0 2 3 356 11 79 89 113 140 157 157 153 163 203 196 183 130 135 91 130 143 126 48 220 137 116 29 116 30 125 173 164 168 174 194 195 203 209
345 343 338 316 60 41 12 345 309 253 280 42 78 123 143 148 157 170 169 154 116 148 125 148 102 113 140 193 312 190 187 112 102 55 95 90 112 149 182 188 200 230 216 216 217
346 341 318 69 87 73 59 77 155 87 282 190 128 110 123 134 150 158 170 171 142 161 136 161 218 262 39 207 147 131 140 119 107 124 70 88 108 49 223 206 225 230 220 226 229
342 331 315 106 115 110 63 79 73 279 307 239 229 222 208 157 142 150 161 156 183 155 148 152 263 102 103 151 144 138 138 124 107 142 110 142 99 120 88 45 292 234 225 235 253
337 329 332 124 139 127 67 36 8 294 195 245 217 193 176 179 186 179 177 179 130 158 170 234 48 117 69 140 146 180 191 173 149 136 103 143 132 205 213 276 300 249 242 252 265
336 333 152 135 128 138 25 354 344 176 110 207 210 180 167 171 159 198 205 181 81 107 121 35 0 71 42 345 219 233 280 155 144 169 161 238 275 255 304 303 283 263 247 248 254
336 325 185 151 121 89 351 356 98 143 121 249 144 173 161 171 147 118 186 190 154 124 203 66 45 55 57 347 311 60 112 132 141 110 144 130 250 96 299 327 2 289 254 249 247
332 300 193 166 129 31 3 86 98 10 97 98 131 147 139 48 65 108 128 117 124 85 70 85 65 49 66 27 108 123 113 100 108 136 220 95 288 92 27 341 336 349 322 274 257
327 266 195 168 142 24 19 129 16 102 308 34 77 84 106 52 60 33 54 51 174 155 169 122 45 82 75 109 182 150 164 179 222 213 335 115 187 61 326 309 300 331 331 326 287
326 233 192 186 180 28 36 63 206 250 258 31 76 103 90 43 49 28 88 94 44 32 122 189 182 22 11 20 304 157 287 289 287 285 99 157 156 87 342 281 306 315 322 344 343
3 208 185 175 172 12 41 116 218 206 304 346 109 96 77 55 105 83 44 45 30 1 122 138 125 316 38 50 315 156 243 45 108 103 214 127 152 182 44 51 13 11 7 358 354
18 154 160 164 152 1 75 228 255 227 320 88 110 51 117 43 97 87 53 23 73 22 297 92 132 18 354 172 58 39 117 231 151 232 241 153 187 41 347 358 20 26 20 14 19
69 131 159 154 152 24 142 235 281 341 199 79 113 100 86 99 72 78 75 54 21 65 74 100 26 44 33 25 354 5 95 65 91 350 291 221 128 360 357 35 45 42 36 28 23
71 88 152 146 44 47 141 216 5 348 19 73 80 74 69 59 84 94 107 34 358 30 55 57 93 76 74 34 56 69 44 346 290 157 62 329 119 30 57 48 33 22 5 358 2
75 83 151 105 134 290 296 114 21 44 2 56 69 47 52 116 106 109 100 26 37 62 107 172 74 134 157 162 126 49 25 62 90 107 147 272 131 67 56 15 6 3 6 5 9
103 104 88 110 94 92 19 23 103 54 60 63 96 83 83 85 26 139 114 57 52 77 81 94 77 313 327 76 98 102 24 356 291 235 140 308 156 34 355 356 11 7 12 5 2
58 85 132 161 41 63 21 27 132 100 74 43 71 67 149 116 104 105 111 120 65 72 55 70 82 79 60 78 94 105 75 62 79 87 305 122 140 355 349 351 7 359 354 358 3
95 150 127 88 96 103 48 148 139 111 353 54 110 45 112 125 139 161 141 155 146 77 78 43 117 110 67 91 111 103 94 91 90 95 112 159 148 4 351 328 353 350 352 348 349
56 140 147 6 110 136 358 352 161 142 48 91 126 95 80 101 118 98 102 96 119 118 106 104 146 159 168 164 112 174 129 143 134 175 190 263 252 338 353 346 338 339 336 337 339